Ana Sayfa
METAR-TAF:

METAR-TAF

Havaalanları :

Dinwiddie County Airport

Petersburg, Virginia, Amerika Birleşik Devletleri

Enlem: 37-11N, Boylam: 077-31W, yükseklik: 59 m

Güncel hava durumu gözlemi

Rapor saat 09:35 UTC de 18 dakika önce yapıldı.
Sakin rüzgar
Sıcaklık 9°C
Nem 93%
Basınç 1012 hPa
Görüş mesafesi: 4.0 km
300 ft yükseklikte çok bulutlu
yağmur

METAR: KPTB 250935Z AUTO 00000KT 2 1/2SM RA OVC003 09/08 A2988 RMK AO2 T00850076

Saat: 04:53 (09:53 UTC)


TAF: eksik

4.000'den fazla havaalanı için hava durumu gözlemleri ve tahminleri (METAR ve TAF raporları).

Kullanılabilir istasyonlar harita üzerinde sarı ve kırmızı noktalarla gösterilir.

İstasyonun adını görmek için fareyi noktanın üzerinde gezdirin.

Sonrasında hava gözlem ve tahminlerini görmek için tıklayın.

Haritayı değiştirmek için: yaklaştırmak için siyah artı işaretli yeşil düğmeye ve uzaklaştırmak için de eksi işaretli düğmeye hızla tıklayın; bitişik haritalar için yeşil okları kullanın.


METAR-TAF: